Tracking 19280 objects as of 14-Nov-2018
HD Live streaming from Space Station
objects crossing your sky now

COSMOS 1413 (GLONASS)

Track COSMOS 1413 (GLONASS) now!
COSMOS 1413 (GLONASS) is classified as:


NORAD ID: 13603
Int'l Code: 1982-100A
Perigee: 19,058.1 km
Apogee: 19,094.2 km
Inclination: 64.0 °
Period: 673.3 minutes
Semi major axis: 25447 km
RCS: 0.4302 m2 (medium)
Launch date: October 12, 1982
Source: Commonwealth of Independent States (former USSR) (CIS)
Launch site: TYURATAM MISSILE AND SPACE COMPLEX (TTMTR)
SV:
aabbcc
Your satellite tracking list
Your tracking list is empty




NASA's NSSDC Master Catalog

Two Line Element Set (TLE):
1 13603U 82100A   18317.14297946  .00000047  00000-0  00000+0 0  9996
2 13603  63.9778 163.4353 0007106  14.5218 255.0933  2.13867081281885
Source of the keplerian elements: AFSPC